Regional Weather Roundup
Issued by NWS

Home | Current Version | Previous Version | Graphics & Text | Print | Product List | Glossary On
Versions: 1 2 3 4 5 6 7 8 9 10 11 12 13 14 15 16 17 18 19 20 21 22 23 24 25 26 27 28 29 30 31 32 33 34 35 36 37 38 39 40 41 42 43 44 45 46 47 48 49 50
000
ASUS45 KABQ 110710
RWRNM
WEATHER ROUNDUP FOR NEW MEXICO
NATIONAL WEATHER SERVICE ALBUQUERQUE NM
100 AM MDT FRI JUL 11 2014

NOTE: "FAIR" MEANS FEW OR NO CLOUDS BELOW 12,000 FEET AGL WITH NO
       SIGNIFICANT WEATHER OR OBSTRUCTIONS TO VISION.

      THIS PRODUCT IS RELEASED AS TWO VERSIONS.  ONE VERSION NEAR
      THE TOP OF THE HOUR CONTAINING PRELIMINARY DATA FROM ALBUQUERQUE
      AND OTHER STATIONS.  A FINAL VERSION WITH ADDITIONAL DATA IS
      ISSUED ABOUT 10 MINUTES AFTER THE HOUR.

NMZ501-503-504-510>518-110800-
NORTHWEST PLATEAU/NORTHCENTRAL MOUNTAINS

CITY           SKY/WX    TMP DP  RH WIND       PRES   REMARKS
FARMINGTON     LGT RAIN  70  58  65 W15       30.15S
LOS ALAMOS     PTCLDY    67  47  49 S3        30.28R
SANTA FE       PTCLDY    69  49  48 SE3       30.22R
TAOS             N/A    N/A N/A N/A MISG        N/A
ANGEL FIRE     FAIR      48  45  89 CALM      30.38S

$$
NMZ402-403-502-505>509-110800-
WESTCENTRAL MOUNTAINS/SOUTHWEST MOUNTAINS

CITY           SKY/WX    TMP DP  RH WIND       PRES   REMARKS
GALLUP         NOT AVBL
GRANTS         MOCLDY    64  51  62 W5        30.26R
SILVER CITY    CLOUDY    75  50  41 MISG      30.18S

$$
NMZ407-409-411-412-110800-
SOUTHERN DESERTS

CITY           SKY/WX    TMP DP  RH WIND       PRES   REMARKS
LORDSBURG      PTSUNNY   72  59  64 CALM      30.09R
DEMING         CLOUDY    77  60  55 S3        30.06R
LAS CRUCES     PTCLDY    80  48  32 SE9       30.07R
HOLLOMAN AFB   PTCLDY    76  50  39 S12       30.03S
ALAMOGORDO     PTCLDY    73  48  40 N5        30.05S
T OR C         MOCLDY    77  53  43 W7        30.09S

$$
NMZ519>523-110800-
CENTRAL VALLEYS/CENTRAL HIGHLANDS

CITY           SKY/WX    TMP DP  RH WIND       PRES   REMARKS
ALBUQUERQUE    MOCLDY    76  51  41 CALM      30.15F
DOUBLE EAGLE   MOCLDY    68  56  64 CALM      30.20R
MORIARTY ARPT  PTSUNNY   63  52  69 S7        30.23S
CLINES CORNERS CLOUDY    65  50  58 S10       30.27R
BELEN          FAIR      73  54  50 N6        30.14S
SOCORRO        FAIR      74  53  48 CALM      30.10S

$$
NMZ524>526-539-540-110800-
SOUTHCENTRAL MOUNTAINS

CITY           SKY/WX    TMP DP  RH WIND       PRES   REMARKS
RUIDOSO        PTCLDY    63  48  59 CALM      30.30S

$$
NMZ527>531-110800-
NORTHEAST HIGHLANDS/NORTHEAST PLAINS

CITY           SKY/WX    TMP DP  RH WIND       PRES   REMARKS
LAS VEGAS      CLEAR     60  48  64 S12       30.25S
RATON            N/A    N/A N/A N/A MISG      30.19R
CLAYTON        CLEAR     73  47  39 S17       30.12R

$$
NMZ532>537-110800-
EASTCENTRAL PLAINS

CITY           SKY/WX    TMP DP  RH WIND       PRES   REMARKS
TUCUMCARI      CLEAR     78  48  34 S18G24    30.07R
CANNON AFB     CLEAR     71  54  54 S9        30.14R
CLOVIS AIRPORT NOT AVBL

$$
NMZ028-029-538-110800-
SOUTHEAST PLAINS

CITY           SKY/WX    TMP DP  RH WIND       PRES   REMARKS
ROSWELL        CLEAR     78  54  43 S16       30.08S
ARTESIA        CLEAR     77  55  47 S21G28    30.08S
CARLSBAD       CLEAR     77  55  46 S14       30.06S
HOBBS          CLEAR     73  59  60 S16       30.12S


$$


USA.gov is the U.S. government's official web portal to all federal, state and local government web resources and services.